Dewpoint
-7 -17 -23 -5 -3 -3 -1 -3 1 8 11 10 9 9 10 11 11 13 15 14 14 14 13 12 12 11 11 10 10 10 10 8 5 -1 -4 -5 -6 -10 -8 -11 -14 -14 -12 -10 -10 -10 -10 -10 -11
-13 -25 -7 -5 -4 -3 -3 -3 2 9 11 10 9 8 7 10 14 14 14 14 14 13 13 12 11 11 11 10 11 10 8 2 -2 -4 -4 -8 -9 -7 -10 -10 -10 -9 -8 -7 -6 -6 -6 -7 -7
-22 -14 -7 -9 -8 -4 -2 2 9 8 7 8 8 9 9 10 14 13 13 13 13 14 14 12 11 11 11 10 10 6 1 -1 -3 -4 -8 -8 -6 -7 -8 -7 -6 -3 -3 -3 -3 -3 -3 -3 -3
-12 -8 -9 -8 -8 -7 2 8 8 7 7 7 8 10 9 8 8 7 8 13 14 13 14 11 11 11 10 9 4 2 -0 -3 -3 -7 -8 -6 -6 -6 -4 -2 -1 -4 -5 -4 -4 -4 -5 -6 -7
-8 -9 -10 -9 -6 -2 -0 7 6 7 9 6 6 7 10 13 10 9 11 13 13 14 14 11 12 11 8 4 2 -1 -3 -3 -5 -7 -5 -4 -2 -2 -2 -3 -5 -4 -4 -4 -4 -5 -5 -4 -3
-11 -10 -11 -8 -1 3 2 6 6 7 5 3 6 7 13 13 13 13 13 13 13 12 13 12 11 8 4 1 -2 -5 -3 -4 -6 -3 -1 -1 -2 -3 -3 -4 -4 -4 -3 -3 -3 -3 -2 -2 -2
-11 -12 -10 -1 3 6 6 6 5 5 3 2 7 7 14 14 14 14 14 13 12 12 13 12 9 4 2 -1 -5 -4 -3 -4 0 -0 -0 -1 -3 -2 -3 -3 -3 -3 -2 -2 -1 -1 -1 -1 -1
-8 -10 -2 2 4 7 6 5 4 3 3 7 7 9 13 13 14 14 13 13 12 12 12 11 11 9 -1 -6 -4 -3 -3 2 1 2 0 0 -1 -3 -3 -2 -2 -2 -0 -0 -0 -0 -0 -0 -0
-7 -8 -3 3 6 6 4 4 4 3 5 6 8 10 12 13 13 12 12 12 12 12 11 11 10 10 8 6 -3 -2 2 4 3 3 2 2 8 3 3 -1 -1 -1 0 0 0 -0 -0 -0 1
-8 -6 -7 -7 -0 0 2 0 3 3 4 5 8 12 13 13 11 11 12 12 10 9 7 -0 -3 -5 -6 5 -1 -1 5 8 9 8 5 9 5 7 7 -0 -0 1 1 1 1 0 0 1 2
-8 -6 -9 -10 -3 -1 0 1 2 3 4 5 6 13 13 13 13 12 12 10 8 9 8 6 -9 -9 -4 3 6 9 9 7 6 5 7 6 6 5 8 3 2 2 2 3 3 3 2 2 1
-6 -9 -10 -13 -2 -1 -1 1 3 3 2 4 5 12 13 12 13 12 7 6 6 8 7 -1 -9 -6 -3 6 8 6 9 8 10 8 6 6 7 5 4 3 2 3 3 3 3 3 3 2 2
-7 -10 -12 -11 -5 -1 -1 1 2 3 4 6 10 12 11 10 9 5 4 5 6 7 7 3 0 2 3 6 7 8 8 10 9 9 8 8 6 6 5 4 4 5 4 4 4 3 3 2 2
-9 -12 -14 -13 -8 -2 -0 2 3 3 6 9 11 10 7 5 3 3 3 4 6 7 8 6 6 5 6 7 8 8 9 9 9 9 7 7 8 7 6 6 6 6 5 4 3 2 1 1 1
-12 -12 -10 -8 -5 -4 -2 -1 -5 3 6 8 8 6 5 1 2 1 2 3 6 8 9 8 6 7 7 7 8 8 7 7 7 7 7 7 8 8 6 6 6 4 2 1 1 -0 -1 -1 -2
-12 -12 -8 -8 -6 -8 -5 -6 -5 3 4 5 5 5 5 4 3 3 2 3 5 8 10 8 7 8 9 9 8 7 4 5 6 8 8 8 7 7 6 4 2 1 1 -1 -3 -3 -4 -5 -4
-9 -11 -10 -9 -10 -7 -10 -8 -3 4 3 5 5 5 5 4 4 5 7 5 5 8 11 8 9 8 9 8 7 7 5 7 8 7 6 5 4 3 2 1 1 0 -2 -5 -7 -5 -4 -5 -4
-8 -12 -11 -11 -10 -10 -9 -3 -3 4 3 3 4 5 5 5 5 7 8 6 7 10 10 8 9 10 9 7 4 6 7 7 5 5 4 3 2 0 1 1 -1 -4 -5 -5 -11 -8 -5 -6 -4
-10 -7 -8 -8 -6 -7 -6 -3 -2 2 4 3 4 5 5 6 7 8 5 5 8 9 8 7 8 9 9 3 8 7 6 5 4 2 2 2 1 1 1 -2 -4 -7 -5 -13 -10 -7 -6 -6 -4
-6 -6 -4 -4 -6 -4 -2 -1 0 0 4 4 4 5 5 6 7 8 8 7 8 9 9 7 8 6 6 5 6 5 4 2 2 1 1 1 1 0 -3 -6 -4 -6 -6 -4 -3 -3 -4 -7 -5
-3 -3 -2 -3 -4 -3 -1 0 2 2 3 5 6 5 6 7 8 9 11 11 10 10 9 6 7 5 2 2 1 1 1 1 1 1 1 2 0 -4 -5 -7 -9 -7 -4 -5 -3 -3 -3 -5 -6
-2 -2 -3 -3 -3 -3 -3 -3 1 2 2 3 5 6 7 8 9 10 10 10 10 7 3 8 6 5 1 1 3 2 3 3 3 3 3 0 -4 -6 -9 -10 -9 -4 -3 -2 -3 -4 -2 -3 -5
0 -3 -3 -3 -2 -1 -1 -2 -1 2 3 3 4 6 8 8 9 7 6 6 7 7 7 6 6 5 3 2 4 4 4 3 3 2 1 -0 -1 -7 -5 -3 -2 -2 -2 -2 -1 -1 -2 -3 -3
-0 0 1 0 -0 1 -1 -0 -7 -4 0 3 4 7 8 7 6 5 3 3 4 5 5 5 4 4 2 3 2 3 3 2 1 -0 -2 -3 -3 -2 -2 -1 -1 -1 -1 -1 -1 -1 -2 -2 -2
-0 -1 -1 2 3 1 2 1 -5 -1 0 3 5 7 6 6 4 3 3 3 4 4 4 5 4 4 3 2 2 2 2 0 -1 -1 -3 -2 -3 -2 -2 -1 -1 -2 -2 -2 -2 -2 -2 -2 -3
-1 -1 -1 -2 1 0 2 2 1 1 -0 3 4 5 5 5 3 2 3 4 4 4 5 4 4 4 2 1 1 0 -3 -1 -2 -2 -2 -2 -2 -2 -3 -5 -5 -5 -5 -4 -3 -2 -3 -3 -4
0 -0 1 4 4 5 -1 0 -0 1 1 3 4 5 4 3 3 3 4 4 4 5 5 5 4 3 -1 -2 -4 -5 -6 -7 -6 -6 -6 -4 -5 -6 -7 -6 -7 -7 -6 -4 -4 -3 -3 -4 -5
0 -1 2 2 3 -1 -4 -3 -5 2 2 2 4 4 3 2 3 4 4 5 5 4 4 3 2 -2 0 -0 -5 -5 -6 -7 -8 -9 -7 -6 -7 -7 -7 -7 -7 -6 -5 -4 -3 -3 -3 -3 -4
1 1 -0 -1 1 -3 -4 -8 -1 -1 1 1 3 3 2 3 4 4 4 5 4 3 3 1 -2 0 -2 -5 -5 -7 -8 -8 -10 -8 -7 -7 -7 -7 -7 -6 -5 -5 -4 -3 -4 -4 -4 -4 -5
-1 -0 -1 -2 -1 2 3 -5 -5 -1 1 1 1 2 2 3 4 4 4 4 2 1 0 -2 -2 -2 -4 -6 -6 -6 -9 -9 -6 -7 -8 -7 -6 -8 -5 -4 -4 -4 -3 -3 -4 -4 -4 -5 -5
Wind_Speed
6 6 4 2 6 6 10 5 2 8 9 8 10 7 9 13 5 3 16 16 23 22 22 20 18 16 16 15 14 14 12 12 11 10 10 10 10 10 10 10 10 9 9 10 10 10 10 10 11
6 4 3 4 7 8 4 4 4 13 19 13 11 8 10 7 7 12 16 18 23 23 20 20 18 16 15 14 13 12 12 11 11 11 11 11 12 12 12 11 10 10 10 9 9 10 11 11 12
5 7 7 4 8 9 2 2 17 23 15 12 5 8 5 3 10 13 10 20 22 20 20 20 19 17 15 14 13 12 11 11 11 12 13 13 13 13 12 11 11 10 11 11 11 11 12 12 12
4 5 5 8 5 3 5 12 25 21 15 7 12 4 8 7 7 9 10 19 18 18 18 20 19 17 16 14 13 12 12 12 13 13 13 13 13 12 12 12 12 12 13 14 14 14 14 15 15
6 5 7 8 3 3 5 18 14 11 14 7 5 8 9 10 15 18 21 23 21 18 17 19 17 16 15 14 13 13 13 14 13 13 14 14 13 13 13 13 14 14 15 16 16 16 16 17 17
9 4 7 9 4 5 9 9 12 12 13 8 3 6 5 11 14 20 27 22 20 20 18 18 16 15 14 13 13 14 15 14 13 14 14 14 14 13 13 13 13 14 14 14 13 13 13 14 15
7 6 4 4 8 11 12 8 12 13 12 12 4 6 6 11 15 18 19 21 19 19 18 16 16 16 13 12 13 15 15 13 14 14 14 13 12 12 11 11 11 11 10 10 9 9 9 10 12
5 5 8 8 9 13 11 12 9 10 2 0 6 5 6 16 21 22 20 20 22 20 15 15 14 14 13 14 15 15 15 14 14 13 12 11 10 9 8 9 8 7 6 5 4 5 6 7 9
4 7 9 11 15 15 10 11 9 11 12 3 4 2 8 24 23 24 24 23 22 19 16 15 14 13 13 13 16 15 15 14 13 12 10 8 6 6 5 6 5 4 2 1 3 5 7 9 10
9 8 7 4 7 14 22 12 15 11 15 8 4 7 20 27 27 27 26 24 23 20 18 15 15 15 16 13 15 15 15 11 8 8 8 5 6 5 4 4 4 3 2 3 6 8 10 9 8
10 8 5 6 11 9 15 15 13 18 10 12 13 19 26 26 23 25 22 21 19 16 14 14 15 16 16 12 11 9 9 10 8 7 7 7 7 6 4 5 5 4 4 5 6 8 10 14 14
8 12 4 2 12 9 7 7 7 14 5 5 8 22 26 25 24 24 23 20 17 15 13 14 15 16 15 11 9 11 8 9 5 6 5 7 6 8 7 6 7 7 8 8 9 11 14 16 18
14 5 5 7 12 15 7 11 9 7 6 10 19 24 22 22 21 19 17 16 14 14 13 13 14 13 13 12 12 11 9 7 9 10 9 8 9 9 8 8 9 9 8 8 9 10 13 16 16
5 3 6 4 13 12 11 7 12 4 10 14 22 22 20 22 21 19 16 14 13 13 12 15 14 13 13 13 12 11 10 10 12 13 12 12 10 9 9 8 8 9 8 10 12 16 18 17 19
9 11 10 7 12 5 11 11 6 5 13 17 18 18 17 18 17 15 12 11 12 13 14 14 16 16 14 12 11 8 4 8 10 15 15 12 9 7 7 7 7 8 10 13 16 19 14 14 15
4 9 8 6 8 5 11 11 6 8 14 17 18 18 17 18 16 13 11 11 12 13 14 18 15 12 11 8 8 7 10 11 15 14 8 7 4 5 5 5 7 10 15 18 18 14 15 14 15
7 8 9 9 2 7 7 9 3 11 14 15 17 18 18 17 14 12 9 10 12 13 16 18 18 16 12 7 4 9 13 8 8 3 1 2 3 3 4 7 12 17 17 19 18 14 15 16 16
8 6 11 12 7 13 9 8 7 10 15 16 17 16 17 17 14 10 11 10 12 15 16 16 18 18 11 5 8 9 10 6 7 3 4 4 4 5 8 13 17 18 13 13 20 19 15 16 17
3 4 10 8 5 7 4 7 5 8 14 16 16 16 15 15 11 9 13 12 14 18 19 12 11 19 12 4 12 13 11 7 5 4 5 5 5 7 11 12 14 14 13 18 19 16 17 18 17
5 8 6 5 4 5 8 6 4 6 11 13 14 14 15 13 10 9 9 11 13 14 13 11 10 11 12 13 13 11 8 7 7 5 8 7 8 11 13 15 10 13 12 13 14 16 18 18 18
4 3 7 5 7 2 9 8 8 4 7 9 10 11 12 12 11 11 11 12 15 18 16 18 16 18 18 16 13 9 8 5 6 9 9 9 9 10 12 16 18 16 15 15 16 16 16 19 18
6 3 6 10 10 7 8 8 11 8 8 9 11 12 12 13 13 13 15 16 19 22 21 19 20 20 19 17 11 10 4 5 6 6 5 4 10 14 18 20 20 18 16 16 17 18 15 16 19
4 4 4 4 6 5 9 7 8 8 10 11 12 14 15 16 17 16 18 21 20 19 18 18 18 15 16 15 8 5 5 5 4 4 4 7 10 16 17 15 16 16 17 18 18 16 17 16 18
10 7 6 3 3 7 4 7 9 5 4 11 14 18 20 19 17 18 20 19 17 16 15 16 15 14 12 9 7 7 4 4 3 4 6 10 12 14 15 16 17 18 20 20 21 20 19 16 17
6 6 3 3 4 6 2 6 11 3 3 9 19 23 21 18 19 21 20 18 16 15 15 14 12 10 9 8 6 4 4 3 3 5 9 13 16 17 18 19 20 20 21 23 22 21 19 18 18
3 4 3 4 3 1 3 5 2 1 1 7 19 22 21 19 20 21 19 16 15 14 13 12 12 9 7 3 3 3 5 3 5 9 12 13 13 15 16 18 20 21 22 21 20 19 18 17 20
5 4 3 2 1 3 4 4 8 3 5 11 19 22 22 22 21 20 18 17 15 12 13 12 10 7 3 3 7 8 7 9 10 13 13 10 13 15 18 21 23 24 22 21 20 19 19 19 20
4 9 3 3 3 4 4 5 2 6 9 12 18 22 23 22 19 19 18 16 14 13 14 13 9 5 1 5 9 8 10 11 12 13 12 11 14 18 21 24 24 23 21 19 19 18 20 16 17
4 4 0 1 2 2 3 1 3 2 5 13 19 23 24 22 20 19 17 15 14 12 11 11 9 3 5 6 8 10 9 12 13 10 10 12 18 21 23 22 21 20 18 15 19 22 15 14 14
3 6 9 4 4 1 2 3 3 1 3 9 16 20 22 20 19 18 17 17 15 14 13 13 7 4 7 8 7 5 11 11 8 10 13 17 20 22 20 18 17 15 13 13 15 14 10 11 13
Wind_Direction
230 252 251 238 242 239 266 180 87 121 81 96 88 73 66 14 358 41 143 147 151 147 157 153 155 155 156 158 154 151 148 148 144 131 125 122 121 118 115 107 99 90 80 70 60 54 47 40 35
232 216 204 245 256 245 261 123 119 97 104 85 64 52 60 66 47 118 136 150 155 151 148 155 157 164 161 156 154 154 154 148 136 133 132 130 124 118 111 103 94 84 73 64 57 49 44 36 31
221 172 235 238 249 271 304 69 119 111 92 70 52 25 28 84 109 123 131 158 156 151 148 161 161 164 160 160 157 157 148 141 141 139 134 132 123 115 106 99 91 86 80 75 69 64 57 48 37
189 194 231 249 250 53 89 116 126 125 97 76 100 33 20 145 129 204 165 167 158 150 149 157 161 161 162 157 156 151 148 150 146 137 131 122 115 109 103 101 97 94 90 86 80 73 64 57 48
194 216 233 236 193 122 164 132 142 124 110 145 172 149 167 173 176 178 175 171 153 149 156 158 162 161 156 158 155 153 154 149 140 131 127 119 114 113 114 113 108 98 90 84 78 70 64 59 53
202 253 233 221 164 120 141 150 149 136 131 78 37 176 133 151 163 179 175 147 157 157 158 162 158 156 163 159 155 154 152 146 137 133 126 122 122 122 120 118 108 101 95 87 79 70 60 52 46
249 223 262 144 127 125 125 150 134 130 124 139 188 212 137 153 165 164 150 154 161 165 160 157 157 165 162 157 159 154 148 144 139 130 129 129 126 126 124 119 114 107 99 92 81 67 54 42 39
233 259 189 151 136 116 140 112 101 47 111 28 180 199 175 165 163 162 161 157 169 169 155 155 163 162 161 163 159 152 147 145 137 134 133 132 129 127 126 121 123 120 115 95 67 48 34 22 19
219 235 190 145 142 123 132 131 158 136 240 210 186 126 169 164 163 167 167 168 168 160 164 164 163 163 161 159 158 153 150 148 141 139 141 136 139 140 146 149 151 157 156 51 7 2 353 351 350
228 240 187 246 141 164 186 180 178 181 197 197 163 109 156 165 168 170 169 167 168 169 171 166 166 167 163 156 160 157 156 153 153 153 158 151 165 181 189 193 207 223 284 328 326 328 330 343 348
200 247 142 183 184 158 179 200 168 216 205 222 192 163 166 165 166 169 167 167 169 168 163 165 167 165 161 162 156 154 155 160 174 174 181 194 198 207 219 236 246 269 295 300 311 315 314 317 321
232 237 254 221 181 138 221 179 208 222 63 204 195 171 160 165 168 169 167 166 166 163 159 164 168 164 166 152 150 158 161 172 176 196 214 225 230 227 234 240 261 278 286 298 304 310 312 314 316
229 225 195 221 184 211 187 188 203 183 62 122 150 161 162 165 166 164 164 163 160 156 158 164 167 162 164 159 169 174 177 194 210 222 225 228 243 241 250 256 265 274 286 300 309 316 317 316 317
183 165 123 213 178 175 181 159 198 116 125 135 151 160 163 166 168 169 170 169 164 162 166 173 175 175 177 184 190 199 208 233 242 251 267 266 236 252 262 264 270 280 292 301 309 309 312 315 314
134 119 127 151 169 143 161 159 71 132 146 147 153 160 164 171 172 179 181 178 172 170 175 179 186 186 193 201 209 219 214 285 294 285 278 267 258 263 264 269 276 292 305 312 318 318 322 318 318
174 163 150 147 167 153 225 146 58 172 165 157 162 169 172 175 179 186 193 193 185 183 182 201 198 197 197 183 131 114 356 313 297 302 285 283 263 267 269 279 296 309 319 325 329 329 326 322 320
196 176 157 145 248 159 239 137 95 172 174 169 176 180 179 175 182 195 193 192 191 185 179 202 201 204 187 138 27 301 254 271 278 252 249 216 227 253 283 309 321 329 333 331 335 333 328 326 319
158 152 179 160 143 183 189 126 134 173 182 186 186 190 186 184 184 199 206 202 186 180 176 206 206 194 189 187 1 218 243 226 199 206 222 226 255 300 330 324 325 332 337 336 333 333 329 329 318
181 171 150 117 132 172 182 146 117 175 199 190 192 190 188 190 195 194 218 216 190 190 192 210 232 214 226 239 211 202 200 188 214 218 225 252 280 310 319 331 336 341 335 336 338 337 330 329 319
162 171 141 126 144 232 172 153 126 172 194 206 201 198 193 190 183 185 191 197 191 177 168 168 189 172 164 156 149 164 184 199 207 231 247 251 278 307 327 338 338 332 333 329 332 332 330 325 320
121 131 157 145 144 112 188 195 188 157 192 200 202 205 201 196 180 171 163 163 164 163 161 152 153 159 160 154 156 164 186 223 237 244 245 260 297 331 332 328 325 326 326 322 320 319 320 317 318
151 88 138 144 189 195 209 238 186 177 187 201 190 192 185 174 166 158 154 152 149 145 146 161 164 164 163 160 167 171 210 230 215 215 210 264 315 318 317 320 322 318 314 311 313 309 302 308 310
109 165 132 180 222 237 189 253 125 173 205 190 184 177 168 159 156 156 154 150 147 151 155 159 161 168 174 175 170 184 202 217 221 215 256 292 305 314 317 314 309 304 304 299 295 292 295 298 297
140 141 126 167 243 247 244 263 272 208 258 164 175 170 163 162 164 161 156 151 153 153 156 161 160 164 173 177 201 215 214 186 226 266 294 301 305 308 307 306 305 297 296 296 293 286 291 282 293
217 205 234 232 220 256 78 261 263 109 194 188 177 173 172 172 168 166 167 167 169 166 164 165 165 163 179 197 212 187 173 200 269 289 301 309 307 303 302 299 305 302 296 294 291 286 288 290 296
183 265 237 262 230 256 189 240 103 89 244 187 181 176 176 177 176 176 177 176 173 171 174 174 173 161 169 187 171 205 261 270 305 309 302 302 302 303 304 308 309 306 302 294 285 281 281 296 295
141 216 32 134 56 270 253 224 218 194 177 180 178 180 184 184 184 184 184 182 181 176 170 168 165 161 221 289 289 270 281 294 295 301 307 309 312 311 311 310 308 305 301 294 284 279 284 292 295
284 131 183 216 233 243 195 263 267 182 191 187 189 192 191 191 190 190 190 189 186 177 187 191 188 198 297 287 266 269 282 296 304 306 310 316 317 318 315 313 309 305 299 293 282 282 285 290 296
157 195 183 272 280 280 294 106 77 67 188 198 201 198 197 197 197 195 195 192 184 177 176 194 194 268 254 223 260 266 286 303 305 310 317 318 321 319 317 314 312 308 302 288 277 292 291 292 290
270 227 205 235 186 223 311 294 154 164 196 204 207 205 205 203 200 197 193 186 181 177 174 192 193 222 224 276 247 261 296 302 302 309 315 318 319 320 317 316 315 308 295 294 291 294 285 292 292
Height
1527 1527 1527 1529 1527 1512 1504 1505 1506 1513 1519 1524 1524 1523 1526 1528 1526 1533 1541 1544 1547 1551 1554 1557 1562 1566 1567 1570 1571 1572 1573 1573 1574 1574 1574 1574 1574 1574 1575 1574 1574 1574 1574 1573 1573 1572 1570 1570 1568
1526 1526 1528 1525 1519 1510 1498 1502 1508 1516 1525 1527 1529 1531 1530 1535 1538 1538 1542 1544 1548 1551 1556 1558 1562 1566 1569 1570 1572 1573 1574 1575 1575 1575 1575 1575 1576 1576 1576 1576 1576 1576 1576 1574 1574 1574 1572 1572 1570
1525 1525 1526 1516 1508 1507 1504 1506 1514 1525 1527 1529 1535 1535 1536 1541 1541 1542 1543 1547 1549 1552 1556 1559 1563 1567 1569 1571 1573 1575 1576 1577 1576 1576 1577 1578 1577 1577 1577 1577 1577 1577 1575 1575 1575 1573 1572 1572 1573
1526 1528 1525 1515 1507 1510 1508 1514 1520 1521 1528 1531 1533 1539 1539 1542 1541 1544 1544 1549 1551 1553 1558 1560 1564 1567 1570 1573 1574 1577 1578 1578 1578 1578 1579 1579 1578 1578 1578 1578 1578 1578 1576 1576 1575 1575 1575 1573 1575
1526 1523 1512 1510 1512 1512 1511 1518 1522 1522 1526 1531 1536 1536 1540 1542 1539 1545 1541 1546 1551 1556 1558 1561 1566 1569 1572 1573 1575 1576 1578 1579 1579 1579 1579 1578 1579 1580 1580 1579 1579 1579 1579 1578 1576 1576 1575 1574 1573
1522 1519 1512 1508 1510 1515 1513 1520 1521 1526 1529 1529 1529 1534 1540 1539 1541 1539 1539 1540 1550 1554 1559 1564 1565 1570 1572 1574 1576 1577 1578 1580 1580 1580 1580 1580 1580 1581 1581 1582 1581 1580 1580 1579 1579 1577 1577 1576 1574
1515 1513 1506 1508 1514 1518 1520 1524 1523 1524 1527 1528 1532 1531 1540 1541 1542 1541 1540 1545 1551 1557 1561 1564 1567 1570 1573 1575 1577 1578 1579 1581 1581 1580 1582 1582 1583 1582 1583 1582 1582 1581 1582 1580 1579 1578 1578 1578 1575
1517 1513 1511 1506 1514 1523 1524 1528 1529 1528 1529 1533 1532 1532 1540 1540 1541 1545 1547 1549 1552 1558 1564 1566 1570 1571 1573 1575 1577 1579 1581 1582 1581 1583 1584 1584 1585 1585 1585 1583 1583 1582 1582 1581 1580 1580 1578 1577 1576
1519 1510 1506 1507 1515 1521 1524 1525 1529 1531 1536 1532 1534 1534 1536 1539 1541 1544 1547 1551 1556 1560 1565 1567 1570 1572 1575 1576 1577 1580 1581 1584 1583 1584 1585 1586 1587 1586 1586 1583 1583 1582 1582 1581 1581 1579 1578 1577 1574
1515 1507 1503 1507 1506 1511 1516 1520 1528 1527 1529 1531 1532 1534 1535 1538 1541 1545 1549 1552 1557 1561 1563 1566 1568 1571 1574 1577 1579 1580 1582 1584 1586 1585 1587 1587 1586 1588 1587 1584 1584 1583 1581 1579 1579 1578 1577 1576 1574
1511 1506 1504 1508 1509 1510 1514 1518 1523 1523 1522 1524 1528 1533 1535 1539 1543 1547 1552 1556 1561 1563 1565 1567 1569 1571 1574 1576 1579 1582 1583 1585 1586 1585 1587 1587 1587 1585 1587 1584 1585 1584 1581 1580 1579 1577 1575 1574 1572
1511 1508 1509 1509 1510 1512 1512 1517 1521 1521 1521 1522 1527 1534 1535 1539 1544 1549 1554 1557 1561 1564 1566 1567 1570 1571 1574 1576 1580 1582 1584 1584 1586 1586 1588 1588 1588 1585 1585 1584 1584 1583 1581 1579 1577 1575 1574 1572 1570
1510 1506 1510 1509 1512 1510 1512 1516 1521 1522 1522 1522 1527 1534 1537 1541 1547 1552 1555 1558 1560 1564 1566 1568 1571 1572 1575 1576 1580 1582 1582 1584 1583 1584 1586 1586 1586 1585 1584 1583 1582 1581 1579 1578 1576 1574 1572 1570 1568
1506 1508 1508 1509 1511 1513 1513 1519 1522 1524 1523 1527 1530 1535 1539 1543 1548 1551 1554 1557 1561 1564 1567 1568 1572 1574 1576 1577 1578 1580 1580 1582 1581 1582 1584 1583 1583 1583 1583 1581 1580 1579 1577 1575 1574 1571 1570 1567 1564
1508 1506 1509 1510 1512 1512 1515 1519 1521 1525 1527 1529 1533 1537 1541 1545 1548 1552 1556 1559 1561 1565 1566 1569 1571 1573 1574 1575 1576 1579 1580 1581 1580 1581 1581 1580 1581 1581 1580 1579 1577 1576 1575 1574 1572 1569 1567 1564 1561
1504 1504 1509 1510 1511 1515 1513 1515 1522 1525 1527 1530 1533 1538 1542 1545 1548 1552 1555 1558 1561 1564 1565 1567 1571 1573 1573 1574 1576 1577 1576 1575 1578 1578 1578 1578 1579 1578 1577 1577 1576 1575 1572 1571 1568 1566 1563 1561 1557
1503 1503 1505 1512 1511 1512 1511 1515 1524 1526 1528 1531 1534 1538 1542 1544 1548 1551 1552 1556 1559 1562 1563 1564 1570 1572 1572 1574 1575 1571 1571 1574 1576 1575 1576 1578 1577 1576 1576 1576 1574 1572 1569 1567 1565 1564 1560 1557 1554
1501 1504 1503 1504 1510 1509 1511 1518 1523 1526 1528 1530 1532 1537 1540 1543 1546 1547 1550 1553 1557 1560 1560 1562 1565 1569 1572 1570 1569 1571 1576 1573 1574 1573 1575 1577 1575 1574 1574 1572 1572 1570 1568 1566 1563 1559 1556 1553 1549
1494 1498 1500 1503 1511 1509 1511 1514 1519 1524 1526 1528 1533 1536 1539 1542 1544 1545 1547 1550 1553 1554 1555 1558 1562 1561 1564 1570 1567 1571 1574 1572 1572 1572 1574 1575 1574 1573 1572 1570 1569 1567 1565 1562 1559 1556 1553 1550 1546
1499 1501 1505 1511 1512 1509 1511 1514 1520 1523 1523 1526 1529 1533 1537 1541 1542 1542 1545 1547 1549 1552 1555 1557 1560 1562 1564 1567 1568 1572 1571 1572 1572 1572 1573 1573 1572 1570 1569 1567 1567 1565 1563 1559 1556 1552 1549 1548 1544
1501 1500 1506 1504 1511 1511 1511 1514 1518 1524 1526 1528 1529 1531 1535 1537 1539 1541 1543 1546 1548 1550 1553 1555 1558 1561 1563 1564 1566 1568 1570 1571 1571 1571 1571 1570 1569 1568 1567 1565 1563 1561 1558 1556 1553 1550 1547 1543 1542
1504 1505 1504 1507 1507 1507 1509 1506 1508 1516 1520 1524 1527 1531 1533 1535 1538 1540 1543 1545 1547 1550 1552 1556 1559 1561 1562 1564 1566 1568 1571 1571 1570 1570 1570 1569 1567 1566 1564 1561 1559 1557 1554 1552 1549 1546 1543 1541 1538
1508 1506 1505 1506 1504 1507 1508 1510 1496 1513 1515 1519 1524 1528 1531 1534 1537 1540 1543 1546 1549 1550 1554 1557 1559 1562 1562 1563 1565 1567 1568 1567 1567 1568 1567 1566 1565 1562 1560 1557 1555 1553 1550 1547 1543 1540 1539 1536 1534
1508 1507 1507 1507 1507 1515 1501 1509 1493 1493 1503 1513 1523 1527 1530 1534 1537 1540 1544 1546 1548 1551 1553 1555 1558 1560 1561 1562 1563 1564 1564 1565 1566 1565 1565 1564 1562 1560 1558 1554 1550 1547 1544 1542 1539 1536 1532 1530 1528
1506 1504 1514 1522 1520 1518 1513 1512 1495 1501 1507 1510 1518 1523 1529 1533 1536 1539 1542 1545 1547 1549 1552 1555 1558 1559 1559 1560 1561 1561 1562 1562 1562 1561 1560 1559 1558 1556 1553 1549 1546 1543 1540 1536 1533 1530 1527 1525 1522
1504 1504 1515 1529 1523 1514 1515 1509 1494 1505 1508 1510 1516 1522 1527 1531 1534 1537 1541 1544 1546 1549 1551 1554 1557 1557 1557 1558 1558 1558 1558 1558 1558 1557 1555 1554 1553 1550 1547 1543 1540 1537 1534 1530 1527 1523 1522 1520 1518
1509 1509 1511 1520 1537 1527 1501 1498 1498 1506 1508 1511 1514 1519 1524 1528 1532 1536 1539 1542 1545 1547 1548 1551 1553 1553 1554 1555 1556 1556 1556 1555 1554 1553 1551 1549 1547 1545 1542 1539 1535 1531 1527 1524 1521 1518 1516 1515 1513
1506 1509 1517 1516 1531 1525 1501 1502 1492 1503 1505 1509 1512 1516 1521 1525 1530 1534 1537 1539 1542 1544 1544 1547 1548 1550 1551 1552 1553 1553 1553 1551 1550 1549 1546 1544 1543 1540 1536 1532 1528 1523 1520 1518 1516 1513 1510 1509 1507
1511 1510 1514 1511 1517 1517 1516 1494 1494 1498 1500 1505 1508 1513 1518 1522 1527 1531 1534 1537 1539 1540 1542 1543 1546 1547 1547 1548 1549 1549 1548 1547 1546 1544 1542 1540 1537 1534 1529 1525 1521 1518 1515 1512 1509 1507 1505 1505 1503
1503 1502 1504 1511 1518 1522 1520 1502 1498 1500 1501 1503 1506 1511 1516 1521 1525 1528 1531 1533 1535 1538 1539 1540 1543 1544 1546 1546 1545 1545 1544 1543 1542 1540 1538 1535 1531 1527 1523 1520 1516 1514 1509 1507 1506 1504 1502 1501 1500